Weather History for Fort Payne, AL

Change the Weather History Date:

Sunday, June 30, 2013

  Actual Average (KRMG) Record (KRMG)
Temperature  
Mean Temperature 73 °F 78 °F  
Max Temperature 86 °F 90 °F 107 °F (2012)
Min Temperature 60 °F 67 °F 59 °F (2000)
Cooling Degree Days 8 13  
Month to date cooling degree days 330  
Year to date cooling degree days 498  
Since 1 June cooling degree days 330  
Growing Degree Days 23 (Base 50)    
Moisture  
Dew Point 58 °F    
Average Humidity 64    
Maximum Humidity 94    
Minimum Humidity 27    
Precipitation  
Precipitation 0.00 in 0.16 in 0.51 in (2014)
Month to date precipitation 4.10  
Year to date precipitation 26.97  
Sea Level Pressure  
Sea Level Pressure 29.76 in    
Wind  
Wind Speed 1 mph (West)    
Max Wind Speed 9 mph    
Max Gust Speed -    
Visibility 10 miles    
Events      
T = Trace of Precipitation, MM = Missing Value Source: NWS Daily Summary

Daily Weather History Graph

Daily Weather History Graph

Search for Another Location

Airport:

Trip Planner

Search our weather history database for the weather conditions in past years. The results will help you decide how hot, cold, wet, or windy it might be!

Date:

Astronomy

Jun. 30, 2013 Rise Set
Actual Time 5:33 AM CDT 7:59 PM CDT
Civil Twilight 5:04 AM CDT 8:28 PM CDT
Nautical Twilight 4:28 AM CDT 9:04 PM CDT
Astronomical Twilight 3:48 AM CDT 9:44 PM CDT
Moon 12:19 AM CDT (6/30) 1:24 PM CDT (6/30)
Length of Visible Light 15h 24m
Length of Day
14h 25m
Last Quarter, 45% of the Moon is Illuminated
Jun 30
Last Quarter
Jul 8
New
Jul 15
First Quarter
Jul 22
Full
Jul 29
Last Quarter

Hourly Weather History & Observations

Time (CDT) Temp. Heat Index Dew Point Humidity Pressure Visibility Wind Dir Wind Speed Gust Speed Precip Events Conditions
12:15 AM 66.2 °F - 62.6 °F 88% 29.74 in 10.0 mi Calm Calm - N/A   Clear
12:35 AM 66.2 °F - 62.6 °F 88% 29.74 in 10.0 mi Calm Calm - N/A   Clear
12:55 AM 64.4 °F - 60.8 °F 88% 29.74 in 10.0 mi Calm Calm - N/A   Clear
1:15 AM 64.4 °F - 60.8 °F 88% 29.73 in 10.0 mi Calm Calm - N/A   Clear
1:35 AM 64.4 °F - 60.8 °F 88% 29.73 in 10.0 mi Calm Calm - N/A   Clear
1:55 AM 62.6 °F - 60.8 °F 94% 29.73 in 10.0 mi Calm Calm - N/A   Clear
2:15 AM 62.6 °F - 60.8 °F 94% 29.73 in 10.0 mi Calm Calm - N/A   Clear
2:35 AM 62.6 °F - 60.8 °F 94% 29.72 in 10.0 mi Calm Calm - N/A   Clear
2:55 AM 62.6 °F - 60.8 °F 94% 29.72 in 10.0 mi Calm Calm - N/A   Clear
3:15 AM 62.6 °F - 60.8 °F 94% 29.72 in 10.0 mi Calm Calm - N/A   Clear
3:35 AM 62.6 °F - 60.8 °F 94% 29.73 in 10.0 mi Calm Calm - N/A   Clear
3:55 AM 62.6 °F - 59.0 °F 88% 29.73 in 10.0 mi Calm Calm - N/A   Clear
4:15 AM 60.8 °F - 59.0 °F 94% 29.73 in 10.0 mi Calm Calm - N/A   Clear
4:35 AM 60.8 °F - 59.0 °F 94% 29.73 in 10.0 mi Calm Calm - N/A   Clear
4:55 AM 60.8 °F - 57.2 °F 88% 29.74 in 10.0 mi Calm Calm - N/A   Clear
5:15 AM 60.8 °F - 57.2 °F 88% 29.75 in 10.0 mi Calm Calm - N/A   Clear
5:35 AM 60.8 °F - 59.0 °F 94% 29.75 in 10.0 mi Calm Calm - N/A   Clear
5:55 AM 60.8 °F - 59.0 °F 94% 29.76 in 10.0 mi Calm Calm - N/A   Clear
6:15 AM 60.8 °F - 59.0 °F 94% 29.76 in 10.0 mi Calm Calm - N/A   Clear
6:35 AM 60.8 °F - 59.0 °F 94% 29.77 in 10.0 mi Calm Calm - N/A   Clear
6:55 AM 62.6 °F - 60.8 °F 94% 29.76 in 10.0 mi Calm Calm - N/A   Clear
7:15 AM 64.4 °F - 60.8 °F 88% 29.76 in 10.0 mi Calm Calm - N/A   Clear
7:35 AM 68.0 °F - 62.6 °F 83% 29.76 in 10.0 mi Calm Calm - N/A   Clear
7:55 AM 69.8 °F - 62.6 °F 78% 29.77 in 10.0 mi Calm Calm - N/A   Clear
8:15 AM 71.6 °F - 62.6 °F 73% 29.77 in 10.0 mi Calm Calm - N/A   Clear
8:35 AM 73.4 °F - 62.6 °F 69% 29.77 in 10.0 mi Calm Calm - N/A   Clear
8:55 AM 75.2 °F - 62.6 °F 65% 29.77 in 10.0 mi SW 3.5 mph - N/A   Clear
9:15 AM 77.0 °F - 60.8 °F 57% 29.77 in 10.0 mi Calm Calm - N/A   Clear
9:35 AM 78.8 °F - 60.8 °F 54% 29.76 in 10.0 mi Calm Calm - N/A   Clear
9:55 AM 80.6 °F 81.1 °F 59.0 °F 48% 29.77 in 10.0 mi SW 4.6 mph - N/A   Clear
10:15 AM 80.6 °F 80.5 °F 55.4 °F 42% 29.77 in 10.0 mi SW 5.8 mph - N/A   Clear
10:35 AM 82.4 °F 81.7 °F 55.4 °F 39% 29.77 in 10.0 mi West 5.8 mph - N/A   Clear
10:55 AM 82.4 °F - 51.8 °F 35% 29.77 in 10.0 mi WSW 6.9 mph - N/A   Clear
11:15 AM 82.4 °F 81.4 °F 53.6 °F 37% 29.77 in 10.0 mi West 4.6 mph - N/A   Mostly Cloudy
11:35 AM 80.6 °F 80.3 °F 53.6 °F 39% 29.77 in 10.0 mi West 5.8 mph - N/A   Overcast
11:55 AM 80.6 °F - 51.8 °F 37% 29.77 in 10.0 mi SW 5.8 mph - N/A   Scattered Clouds
12:15 PM 86.0 °F - 48.2 °F 27% 29.77 in 10.0 mi SW 5.8 mph - N/A   Clear
12:35 PM 86.0 °F - 50.0 °F 29% 29.76 in 10.0 mi SW 5.8 mph - N/A   Clear
12:55 PM 86.0 °F - 50.0 °F 29% 29.75 in 10.0 mi West 4.6 mph - N/A   Clear
1:15 PM 86.0 °F - 50.0 °F 29% 29.75 in 10.0 mi West 9.2 mph - N/A   Clear
1:35 PM 86.0 °F - 50.0 °F 29% 29.74 in 10.0 mi West 9.2 mph - N/A   Clear
1:55 PM 86.0 °F - 48.2 °F 27% 29.73 in 10.0 mi WNW 6.9 mph - N/A   Clear
2:15 PM 86.0 °F - 50.0 °F 29% 29.73 in 10.0 mi West 6.9 mph - N/A   Scattered Clouds
2:35 PM 86.0 °F - 50.0 °F 29% 29.73 in 10.0 mi West 5.8 mph - N/A   Scattered Clouds
2:55 PM 86.0 °F - 51.8 °F 31% 29.74 in 10.0 mi WSW 5.8 mph - N/A   Scattered Clouds
3:15 PM 86.0 °F - 50.0 °F 29% 29.74 in 10.0 mi West 5.8 mph - N/A   Scattered Clouds
3:35 PM 84.2 °F - 50.0 °F 30% 29.74 in 10.0 mi WSW 6.9 mph - N/A   Clear
3:55 PM 86.0 °F - 51.8 °F 31% 29.73 in 10.0 mi West 5.8 mph - N/A   Clear
4:15 PM 86.0 °F - 51.8 °F 31% 29.72 in 10.0 mi NW 4.6 mph - N/A   Scattered Clouds
4:35 PM 82.4 °F 81.4 °F 53.6 °F 37% 29.73 in 10.0 mi WSW 4.6 mph - N/A   Scattered Clouds
4:55 PM 82.4 °F 81.4 °F 53.6 °F 37% 29.73 in 10.0 mi West 5.8 mph - N/A   Scattered Clouds
5:15 PM 80.6 °F 80.3 °F 53.6 °F 39% 29.73 in 10.0 mi West 6.9 mph - N/A   Scattered Clouds
5:35 PM 78.8 °F - 55.4 °F 44% 29.74 in 10.0 mi West 6.9 mph - N/A   Scattered Clouds
5:55 PM 78.8 °F - 55.4 °F 44% 29.74 in 10.0 mi WSW 5.8 mph - N/A   Scattered Clouds
6:15 PM 78.8 °F - 55.4 °F 44% 29.74 in 10.0 mi Calm Calm - N/A   Overcast
6:35 PM 77.0 °F - 55.4 °F 47% 29.75 in 10.0 mi Calm Calm - N/A   Overcast
6:55 PM 77.0 °F - 59.0 °F 54% 29.75 in 10.0 mi Calm Calm - N/A   Overcast
7:15 PM 77.0 °F - 60.8 °F 57% 29.75 in 10.0 mi Calm Calm - N/A   Mostly Cloudy
7:35 PM 77.0 °F - 60.8 °F 57% 29.76 in 10.0 mi Calm Calm - N/A   Clear
7:55 PM 73.4 °F - 60.8 °F 65% 29.77 in 10.0 mi Calm Calm - N/A   Scattered Clouds
8:15 PM 73.4 °F - 62.6 °F 69% 29.77 in 10.0 mi Calm Calm - N/A   Scattered Clouds
8:35 PM 71.6 °F - 60.8 °F 69% 29.77 in 10.0 mi Calm Calm - N/A   Clear
8:55 PM 69.8 °F - 62.6 °F 78% 29.78 in 10.0 mi Calm Calm - N/A   Clear
9:15 PM 69.8 °F - 60.8 °F 73% 29.79 in 10.0 mi Calm Calm - N/A   Clear
9:35 PM 68.0 °F - 60.8 °F 78% 29.80 in 10.0 mi Calm Calm - N/A   Clear
9:55 PM 68.0 °F - 60.8 °F 78% 29.80 in 10.0 mi Calm Calm - N/A   Clear
10:15 PM 68.0 °F - 60.8 °F 78% 29.81 in 10.0 mi Calm Calm - N/A   Scattered Clouds
10:35 PM 68.0 °F - 60.8 °F 78% 29.81 in 10.0 mi Calm Calm - N/A   Mostly Cloudy
10:55 PM 68.0 °F - 60.8 °F 78% 29.81 in 10.0 mi Calm Calm - N/A   Scattered Clouds
11:15 PM 68.0 °F - 62.6 °F 83% 29.81 in 10.0 mi Calm Calm - N/A   Clear
11:35 PM 68.0 °F - 60.8 °F 78% 29.80 in 10.0 mi Calm Calm - N/A   Scattered Clouds
11:55 PM 68.0 °F - 62.6 °F 83% 29.80 in 10.0 mi Calm Calm - N/A   Mostly Cloudy